Terminal Aerodrome Forecast
Issued by NWS

Current Version | Previous Version | Graphics & Text | Print | Product List | Glossary On
Versions: 1 2 3 4 5 6 7 8 9 10 11 12 13 14 15 16 17 18 19 20 21 22 23 24 25 26 27 28 29 30 31 32 33 34 35 36 37 38 39 40 41 42 43 44
000
FTUS41 KRNK 301721
TAFLWB
TAF
KLWB 301721Z 3018/0118 23008KT P6SM SCT035 BKN045
     FM302030 25008KT P6SM VCTS BKN040CB
     FM010200 25003KT P6SM SCT040 BKN100
     FM010700 00000KT 5SM BR OVC020
     FM011230 26005KT P6SM SCT045 BKN100=

USA.gov is the U.S. government's official web portal to all federal, state and local government web resources and services.